Location: Wellington
(33.8226°N, 85.8927°W)
Time: 05:44:36
(UTC+00:00)

Daily predictions for brighter satellites

Satellite Brightness Start Highest point End
(mag) Time Altitude Azimuth Time Altitude Azimuth Time Altitude Azimuth
Okean 2 Rocket 3.2 00:01:41 10° SSE 00:05:54 48° E 00:08:01 26° NNE
RESURS DK-1 3.6 00:03:51 10° N 00:05:59 24° NNE 00:05:59 24° NNE
BREEZE M DEB (TANK) 3.5 00:06:41 10° SSW 00:09:18 26° SSE 00:09:18 26° SSE
Nadezhda 4 Rocket 4.1 00:05:48 10° N 00:11:51 48° E 00:17:48 10° SSE
ISS -1.3 00:10:55 10° WNW 00:13:01 16° NNW 00:14:17 13° N
CZ-2D R/B 3.3 00:09:04 10° SSE 00:13:07 87° WSW 00:17:17 10° NNW
SJ 16-02 1.2 00:09:15 10° S 00:13:30 67° ESE 00:15:05 37° NNE
ATLAS 2A CENTAUR R/B 3.8 00:01:18 10° WSW 00:14:42 38° S 00:17:16 24° SE
Spot 4 Rocket 3.9 00:10:12 10° SSE 00:15:17 78° ENE 00:20:23 10° N
Helios 1A Rocket 3.8 00:17:59 10° N 00:21:06 38° WNW 00:24:15 10° SW
USA 215 3.8 00:17:04 10° SSE 00:23:27 57° SW 00:29:52 10° NW
ATLAS 5 CENTAUR R/B 2.2 00:20:45 10° NW 00:25:39 75° WSW 00:31:42 10° SSE
Cosmos 1833 Rocket 4.3 00:24:37 10° NW 00:29:41 35° WSW 00:34:44 10° SSW
Cosmos 371 Rocket 3.1 00:25:59 10° S 00:30:45 78° ESE 00:31:39 58° NE
Cosmos 1428 Rocket 4.4 00:27:50 10° N 00:34:02 61° E 00:40:15 10° SSE
Cosmos 1656 Rocket 3.7 00:28:46 10° S 00:33:51 53° ESE 00:33:51 53° ESE
Cosmos 2058 3.0 00:31:06 10° NNW 00:35:03 70° W 00:38:59 10° S
Cosmos 304 Rocket 3.7 00:34:54 10° SSW 00:39:36 80° WNW 00:40:27 60° N
NOAA 6 3.9 00:35:21 10° SSE 00:40:29 87° ENE 00:45:40 10° NNW
Cosmos 1763 Rocket 4.1 00:38:44 10° NNW 00:43:49 56° WSW 00:48:46 10° S
Cosmos 540 Rocket 3.8 00:41:31 10° NNW 00:46:35 64° WSW 00:51:36 10° S
Cosmos 1400 Rocket 4.0 00:45:26 10° SSW 00:49:00 38° W 00:49:28 36° WNW
OAO 3 Rocket 3.4 00:45:27 10° W 00:49:21 61° WNW 00:49:21 61° WNW
Sich 1 Rocket 4.4 00:50:35 10° SSW 00:54:57 51° W 00:55:45 45° NW
Centaur AC-119 4.4 00:51:42 10° WSW 00:58:34 52° S 01:00:28 45° SE
Cosmos 2034 Rocket 4.3 00:52:54 10° SSW 00:59:00 66° W 01:05:12 10° N
USA 281 4.4 01:07:16 29° N 01:07:16 29° N 01:10:25 10° N
Okean 1 Rocket 4.4 01:02:26 10° SSW 01:06:32 37° W 01:06:43 37° WNW
Cosmos 2082 Rocket 3.6 01:25:05 10° NNW 01:28:04 31° NW 01:28:04 31° NW
SL-16 R/B 4.0 09:30:09 10° SSE 09:32:31 25° SSE 09:32:31 25° SSE
SL-16 R/B 3.7 09:35:48 10° SSE 09:40:51 34° ESE 09:45:54 10° NE
Cosmos 1725 Rocket 4.4 09:42:15 10° N 09:48:31 62° E 09:54:42 10° SSE
Cosmos 1802 Rocket 3.8 10:06:59 28° NNW 10:10:30 77° W 10:16:40 10° S
UNK 4.1 10:07:27 10° SSE 10:10:51 51° S 10:10:51 51° S
Cosmos 2237 Rocket 4.1 10:24:59 14° NNW 10:24:59 14° NNW 10:26:02 10° N
SJ 16-02 2.9 10:18:05 12° N 10:21:37 33° ENE 10:25:29 10° SE
Cosmos 2056 Rocket 3.4 10:21:55 33° SSW 10:24:20 70° WNW 10:29:44 10° NNE
Cosmos 2278 Rocket 2.4 10:25:22 47° WSW 10:25:22 47° WSW 10:30:26 10° S
Cosmos 1943 Rocket 2.6 10:28:04 39° SW 10:28:04 39° SW 10:32:20 10° S
USA 229 DEB 3.3 10:23:41 14° SSW 10:28:40 87° ESE 10:34:57 10° NNE
USA 229 3.3 10:23:47 13° SSW 10:28:53 86° ESE 10:35:10 10° NNE
Cosmos 2016 Rocket 4.0 10:27:02 10° NNW 10:33:16 60° W 10:39:25 10° S
Cosmos 407 Rocket 3.7 10:33:47 44° WSW 10:33:47 44° WSW 10:38:18 10° S
Cosmos 1954 Rocket 4.5 10:28:43 10° N 10:33:49 58° ENE 10:38:52 10° SSE
Cosmos 2369 Rocket 4.3 10:32:14 10° N 10:36:48 24° ENE 10:41:20 10° ESE
USA-17 4.3 10:38:31 70° SW 10:38:31 70° SW 10:42:25 10° SSE
USA 267 3.9 10:33:44 10° NNE 10:39:25 33° NW 10:40:53 30° WNW
Cosmos 1932 4.5 10:36:40 26° NW 10:40:27 66° WSW 10:46:51 10° SSE
Cosmos 1782 Rocket 3.6 10:42:02 45° WNW 10:42:48 51° W 10:46:58 10° SSW
IRS-1D 3.3 10:38:54 10° NNE 10:43:51 88° WNW 10:48:46 10° SSW
Cosmos 1371 Rocket 4.2 10:41:01 24° SW 10:43:52 46° WNW 10:48:59 10° N
Iridium 4 Rocket 3.3 10:47:39 39° WSW 10:47:39 39° WSW 10:51:12 10° SSW
Helios 1A Rocket 4.1 10:45:18 10° SE 10:48:22 34° ENE 10:51:27 10° N
ATLAS 3B R/B 2.9 10:42:11 10° SW 10:49:29 69° WNW 10:57:17 10° NNE
FengYun 1-2 T 4.2 10:45:01 10° N 10:50:30 58° WNW 10:56:00 10° SSW
Cosmos 1300 Rocket 4.1 10:51:06 34° W 10:51:06 34° W 10:54:41 10° SSW
Cosmos 1869 3.0 10:47:39 11° N 10:50:57 78° E 10:54:26 10° S
Cosmos 371 Rocket 3.6 10:46:25 10° N 10:51:14 67° ENE 10:56:01 10° SSE
Delta 142 4.2 10:53:06 25° SW 10:54:56 39° S 10:58:47 10° ESE
Cosmos 1812 2.9 10:54:26 10° N 10:57:15 49° E 11:00:03 10° SSE
Chandra Rocket (1) 3.8 10:54:12 22° WSW 10:57:28 52° S 11:13:01 10° ESE
Cosmos 304 Rocket 3.7 10:54:04 10° NNW 10:58:52 84° ENE 11:03:36 10° SSE
CENTAUR R/B 4.4 10:50:57 10° NNW 10:59:02 42° NE 11:07:49 10° ESE
CZ-4 R/B 3.7 10:54:23 10° N 10:59:09 68° WNW 11:03:47 10° SSW
Meteor 1-21 Rocket 4.2 10:53:30 10° S 10:59:17 83° W 11:04:58 10° N
Cosmos 1110 Rocket 4.0 10:54:37 10° SSW 10:59:53 88° ESE 11:05:12 10° NNE
Cosmos 1378 Rocket 3.4 10:59:35 10° S 11:03:50 81° W 11:08:07 10° N
Cosmos 2242 Rocket 3.9 11:03:40 10° SSW 11:07:48 42° W 11:11:59 10° N
OAO 1 4.5 11:04:44 21° W 11:08:25 83° N 11:13:53 10° E
ATLAS CENTAUR Rocket 4.2 11:08:14 10° SSW 11:11:41 25° SSE 11:17:53 10° E
USA 234 3.9 11:05:29 10° ESE 11:11:48 53° NE 11:18:08 10° NNW
NOAA 12 4.1 11:06:38 10° N 11:11:51 59° WNW 11:17:02 10° SSW
Cosmos 1656 Rocket 3.6 11:07:19 10° NNW 11:13:00 81° WSW 11:18:39 10° SSE
In-Cosmos 22 Rocket 4.4 11:08:19 10° SSW 11:13:56 50° W 11:19:34 10° N
CZ-3 R/B 2.5 11:03:32 11° WSW 11:18:07 60° S 11:23:19 10° ESE
Cosmos 2251 Rocket 4.4 11:18:51 11° NW 11:23:14 29° W 11:27:46 10° SSW
SL-16 R/B 3.0 11:20:04 10° WSW 11:24:53 28° WNW 11:29:44 10° N
Cosmos 1891 Rocket 4.5 11:19:24 10° N 11:25:39 70° W 11:31:45 10° S
IGS 5A 3.7 11:28:47 10° NNE 11:32:47 69° ESE 11:36:44 10° S
Cosmos 1452 Rocket 3.5 11:28:16 10° SSW 11:33:25 61° WNW 11:38:36 10° N
H-2A R/B 3.4 11:31:38 10° WSW 11:34:08 35° S 11:41:34 10° ESE
Aureole 3 Rocket 4.4 11:31:16 10° NNW 11:37:00 54° W 11:44:48 10° SSW
ARIANE 5 R/B 4.2 11:39:45 10° NNE 11:44:33 40° E 11:49:22 10° SSE
Cosmos 1850 Rocket 4.2 11:40:28 10° NNW 11:45:38 74° ENE 11:50:47 10° SSE
Cosmos 1464 Rocket 3.9 11:41:55 10° N 11:48:01 75° W 11:54:06 10° S
